Weather History for Benson, United Kingdom

Change the Weather History Date:

Wednesday, January 30, 2013

  Actual Average Record
Temperature  
Mean Temperature 46 °F -  
Max Temperature 51 °F 45 °F 53 °F (2000)
Min Temperature 42 °F 33 °F 17 °F (2011)
Degree Days  
Heating Degree Days 18    
Moisture  
Dew Point 40 °F    
Average Humidity 72    
Maximum Humidity 94    
Minimum Humidity 48    
Precipitation  
Precipitation 0.00 in - - ()
Sea Level Pressure  
Sea Level Pressure 29.75 in    
Wind  
Wind Speed 14 mph ()    
Max Wind Speed 25 mph    
Max Gust Speed 40 mph    
Visibility 7.8 miles    
Events Rain    
Averages and records for this station are not official NWS values.
T = Trace of Precipitation, MM = Missing Value Source: Averaged Metar Reports

Daily Weather History Graph

Daily Weather History Graph

Search for Another Location

Airport:

Trip Planner

Search our weather history database for the weather conditions in past years. The results will help you decide how hot, cold, wet, or windy it might be!

Date:

Astronomy

Jan. 30, 2013 Rise Set
Actual Time 7:45 AM GMT 4:50 PM GMT
Civil Twilight 7:09 AM GMT 5:26 PM GMT
Nautical Twilight 6:28 AM GMT 6:07 PM GMT
Astronomical Twilight 5:49 AM GMT 6:46 PM GMT
Moon 9:07 PM GMT (1/30) 8:35 AM GMT (1/30)
Length of Visible Light 10h 17m
Length of Day
9h 04m
Waning Gibbous, 89% of the Moon is Illuminated
Jan 30
Waning Gibbous
Feb 3
Last Quarter
Feb 10
New
Feb 17
First Quarter
Feb 25
Full

Hourly Weather History & Observations

Time (GMT) Temp. Windchill Dew Point Humidity Pressure Visibility Wind Dir Wind Speed Gust Speed Precip Events Conditions
12:50 AM 55.4 °F - 51.8 °F 88% 29.50 in 6.2 mi SW 23.0 mph - N/A Rain Light Rain
1:50 AM 51.8 °F - 50.0 °F 94% 29.50 in 4.3 mi WSW 10.4 mph - N/A Rain Rain
2:50 AM 50 °F - 47 °F 85% 29.56 in 9 mi West 12.7 mph - - Rain Rain
2:50 AM 50.0 °F - 46.4 °F 87% 29.53 in 6.2 mi West 12.7 mph - N/A Rain Rain
3:50 AM 48.2 °F - 46.4 °F 93% 29.53 in 6.2 mi WSW 8.1 mph - N/A Rain Light Rain
4:50 AM 48.2 °F - 44.6 °F 87% 29.53 in - SW 8.1 mph - N/A   Clear
5:50 AM 48 °F - 44 °F 79% 29.58 in 31 mi SW 9.2 mph - -   Partly Cloudy
5:50 AM 48.2 °F - 42.8 °F 82% 29.56 in - SW 9.2 mph - N/A   Clear
6:50 AM 48.2 °F - 42.8 °F 82% 29.59 in 6.2 mi WSW 11.5 mph - N/A   Mostly Cloudy
7:50 AM 48.2 °F - 42.8 °F 82% 29.62 in 6.2 mi WSW 15.0 mph - N/A   Scattered Clouds
8:50 AM 49 °F - 43 °F 71% 29.65 in 22 mi SW 13.8 mph - -   Partly Cloudy
8:50 AM 48.2 °F - 42.8 °F 82% 29.62 in 6.2 mi SW 13.8 mph - N/A   Mostly Cloudy
9:50 AM 48.2 °F - 41.0 °F 76% 29.68 in 6.2 mi WSW 18.4 mph - N/A   Scattered Clouds
10:50 AM 50.0 °F - 41.0 °F 71% 29.71 in 6.2 mi WSW 19.6 mph 35.7 mph N/A   Partly Cloudy
11:50 AM 51 °F - 40 °F 56% 29.73 in 16 mi WSW 23.0 mph - -   Partly Cloudy
11:50 AM 51.8 °F - 39.2 °F 62% 29.71 in 6.2 mi WSW 23.0 mph - N/A   Scattered Clouds
12:50 PM 51.8 °F - 37.4 °F 58% 29.74 in 6.2 mi West 25.3 mph 39.1 mph N/A   Partly Cloudy
1:50 PM 51.8 °F - 35.6 °F 54% 29.77 in 6.2 mi WSW 25.3 mph 40.3 mph N/A   Partly Cloudy
2:50 PM 51 °F - 37 °F 48% 29.80 in 12 mi WSW 21.9 mph - -   Scattered Clouds
2:50 PM 50.0 °F - 37.4 °F 62% 29.77 in 6.2 mi WSW 21.9 mph 35.7 mph N/A   Partly Cloudy
3:50 PM 50.0 °F - 37.4 °F 62% 29.83 in 6.2 mi WSW 24.2 mph 36.8 mph N/A   Partly Cloudy
4:50 PM 48.2 °F - 35.6 °F 62% 29.86 in 6.2 mi WSW 24.2 mph 36.8 mph N/A   Partly Cloudy
5:50 PM 47 °F - 37 °F 57% 29.89 in 11 mi WSW 19.6 mph - -   Scattered Clouds
5:50 PM 48.2 °F - 37.4 °F 66% 29.89 in - WSW 19.6 mph 33.4 mph N/A   Clear
6:50 PM 48.2 °F - 35.6 °F 62% 29.92 in 6.2 mi WSW 21.9 mph 33.4 mph N/A   Partly Cloudy
7:50 PM 46.4 °F 40.1 °F 35.6 °F 66% 29.95 in 6.2 mi WSW 15.0 mph 26.5 mph N/A   Partly Cloudy
8:50 PM 45 °F - 36 °F 61% 29.99 in 12 mi WSW 13.8 mph - -   Clear
8:50 PM 44.6 °F 38.1 °F 35.6 °F 71% 29.98 in - WSW 13.8 mph - N/A   Clear
9:50 PM 44.6 °F 38.4 °F 37.4 °F 76% 30.01 in - SW 12.7 mph - N/A   Clear
10:50 PM 42.8 °F 37.0 °F 35.6 °F 76% 30.04 in - SSW 10.4 mph - N/A   Clear
11:50 PM 44 °F - 38 °F 71% 30.05 in 16 mi SSW 10.4 mph - -   Mostly Cloudy
11:50 PM 44.6 °F 39.2 °F 37.4 °F 76% 30.04 in - SSW 10.4 mph - N/A   Clear